Time,TemperatureF,DewpointF,PressureIn,WindDirection,WindDirectionDegrees,WindSpeedMPH,WindSpeedGustMPH,Humidity,HourlyPrecipIn,Conditions,Clouds,dailyrainin,SoftwareType,DateUTC
2013-07-24 00:02:00,62.0,-99.9,-100.00,NNE,15,23.0,30.0,-999,-99.99,,,-99.99,,2013-07-24 04:02:00,
2013-07-24 00:22:00,62.0,-99.9,-100.00,North,7,25.0,29.0,-999,-99.99,,,-99.99,,2013-07-24 04:22:00,
2013-07-24 00:40:00,62.0,-99.9,-100.00,NNE,20,20.0,26.0,-999,-99.99,,,-99.99,,2013-07-24 04:40:00,
2013-07-24 00:44:00,62.0,-99.9,-100.00,North,7,25.0,0.0,-999,-99.99,,,-99.99,,2013-07-24 04:44:00,
2013-07-24 00:53:00,62.0,-99.9,-100.00,North,7,25.0,0.0,-999,-99.99,,,-99.99,,2013-07-24 04:53:00,
2013-07-24 01:02:00,62.0,-99.9,-100.00,North,7,25.0,0.0,-999,-99.99,,,-99.99,,2013-07-24 05:02:00,
2013-07-24 01:22:00,62.0,-99.9,-100.00,NNE,20,20.0,26.0,-999,-99.99,,,-99.99,,2013-07-24 05:22:00,
2013-07-24 01:33:00,62.0,-99.9,-100.00,NNE,20,20.0,26.0,-999,-99.99,,,-99.99,,2013-07-24 05:33:00,
2013-07-24 01:40:00,61.0,-99.9,-100.00,NNE,12,16.0,21.0,-999,-99.99,,,-99.99,,2013-07-24 05:40:00,
2013-07-24 02:12:00,61.0,-99.9,-100.00,NNE,12,16.0,21.0,-999,-99.99,,,-99.99,,2013-07-24 06:12:00,
2013-07-24 02:24:00,61.0,-99.9,-100.00,NNE,12,16.0,21.0,-999,-99.99,,,-99.99,,2013-07-24 06:24:00,
2013-07-24 02:35:00,61.0,-99.9,-100.00,NNE,12,16.0,21.0,-999,-99.99,,,-99.99,,2013-07-24 06:35:00,
2013-07-24 02:40:00,60.0,-99.9,-100.00,NNE,28,15.0,19.0,-999,-99.99,,,-99.99,,2013-07-24 06:40:00,
2013-07-24 03:12:00,60.0,-99.9,-100.00,NNE,28,15.0,19.0,-999,-99.99,,,-99.99,,2013-07-24 07:12:00,
2013-07-24 03:22:00,60.0,-99.9,-100.00,NNE,28,15.0,19.0,-999,-99.99,,,-99.99,,2013-07-24 07:22:00,
2013-07-24 03:32:00,60.0,-99.9,-100.00,NNE,28,15.0,19.0,-999,-99.99,,,-99.99,,2013-07-24 07:32:00,
2013-07-24 03:40:00,60.0,-99.9,-100.00,East,86,9.0,15.0,-999,-99.99,,,-99.99,,2013-07-24 07:40:00,
2013-07-24 04:12:00,60.0,-99.9,-100.00,East,86,9.0,15.0,-999,-99.99,,,-99.99,,2013-07-24 08:12:00,
2013-07-24 04:22:00,60.0,-99.9,-100.00,East,86,9.0,15.0,-999,-99.99,,,-99.99,,2013-07-24 08:22:00,
2013-07-24 04:32:00,60.0,-99.9,-100.00,East,86,9.0,15.0,-999,-99.99,,,-99.99,,2013-07-24 08:32:00,
2013-07-24 04:40:00,58.0,-99.9,-100.00,East,96,6.0,12.0,-999,-99.99,,,-99.99,,2013-07-24 08:40:00,
2013-07-24 05:12:00,58.0,-99.9,-100.00,East,96,6.0,12.0,-999,-99.99,,,-99.99,,2013-07-24 09:12:00,
2013-07-24 05:22:00,58.0,-99.9,-100.00,East,96,6.0,12.0,-999,-99.99,,,-99.99,,2013-07-24 09:22:00,
2013-07-24 05:32:00,58.0,-99.9,-100.00,East,96,6.0,12.0,-999,-99.99,,,-99.99,,2013-07-24 09:32:00,
2013-07-24 05:40:00,57.0,-99.9,-100.00,East,85,9.0,13.0,-999,-99.99,,,-99.99,,2013-07-24 09:40:00,
2013-07-24 06:12:00,57.0,-99.9,-100.00,East,85,9.0,13.0,-999,-99.99,,,-99.99,,2013-07-24 10:12:00,
2013-07-24 06:22:00,57.0,-99.9,-100.00,East,85,9.0,13.0,-999,-99.99,,,-99.99,,2013-07-24 10:22:00,
2013-07-24 06:33:00,57.0,-99.9,-100.00,East,85,9.0,13.0,-999,-99.99,,,-99.99,,2013-07-24 10:33:00,
2013-07-24 07:12:00,57.0,-99.9,-100.00,ENE,71,11.0,14.0,-999,-99.99,,,-99.99,,2013-07-24 11:12:00,
2013-07-24 07:32:00,58.0,-99.9,-100.00,ENE,71,6.0,27.0,-999,-99.99,,,-99.99,,2013-07-24 11:32:00,
2013-07-24 08:42:00,61.0,-99.9,-100.00,NE,54,4.0,11.0,-999,-99.99,,,-99.99,,2013-07-24 12:42:00,
2013-07-24 08:52:00,61.0,-99.9,-100.00,NE,54,4.0,11.0,-999,-99.99,,,-99.99,,2013-07-24 12:52:00,
2013-07-24 09:02:00,61.0,-99.9,-100.00,NE,54,4.0,11.0,-999,-99.99,,,-99.99,,2013-07-24 13:02:00,
2013-07-24 09:22:00,64.0,-99.9,-100.00,East,99,2.0,4.0,-999,-99.99,,,-99.99,,2013-07-24 13:22:00,
2013-07-24 09:40:00,65.0,-99.9,-100.00,North,356,0.0,3.0,-999,-99.99,,,-99.99,,2013-07-24 13:40:00,
2013-07-24 09:43:00,65.0,-99.9,-100.00,NE,46,3.0,7.0,-999,-99.99,,,-99.99,,2013-07-24 13:43:00,
2013-07-24 09:53:00,65.0,-99.9,-100.00,NE,46,3.0,7.0,-999,-99.99,,,-99.99,,2013-07-24 13:53:00,
2013-07-24 10:12:00,65.0,-99.9,-100.00,North,356,0.0,3.0,-999,-99.99,,,-99.99,,2013-07-24 14:12:00,
2013-07-24 10:22:00,65.0,-99.9,-100.00,North,356,0.0,3.0,-999,-99.99,,,-99.99,,2013-07-24 14:22:00,
2013-07-24 10:32:00,65.0,-99.9,-100.00,North,356,0.0,3.0,-999,-99.99,,,-99.99,,2013-07-24 14:32:00,
2013-07-24 10:40:00,64.0,-99.9,-100.00,NW,316,2.0,6.0,-999,-99.99,,,-99.99,,2013-07-24 14:40:00,
2013-07-24 11:12:00,64.0,-99.9,-100.00,NW,316,2.0,6.0,-999,-99.99,,,-99.99,,2013-07-24 15:12:00,
2013-07-24 11:22:00,64.0,-99.9,-100.00,NW,316,2.0,6.0,-999,-99.99,,,-99.99,,2013-07-24 15:22:00,
2013-07-24 11:33:00,64.0,-99.9,-100.00,NW,316,2.0,6.0,-999,-99.99,,,-99.99,,2013-07-24 15:33:00,
2013-07-24 11:40:00,67.0,-99.9,-100.00,WNW,287,4.0,6.0,-999,-99.99,,,-99.99,,2013-07-24 15:40:00,
2013-07-24 12:12:00,67.0,-99.9,-100.00,WNW,287,4.0,6.0,-999,-99.99,,,-99.99,,2013-07-24 16:12:00,
2013-07-24 12:23:00,67.0,-99.9,-100.00,WNW,287,4.0,6.0,-999,-99.99,,,-99.99,,2013-07-24 16:23:00,
2013-07-24 12:33:00,67.0,-99.9,-100.00,WNW,287,4.0,6.0,-999,-99.99,,,-99.99,,2013-07-24 16:33:00,
2013-07-24 12:40:00,67.0,-99.9,-100.00,WNW,301,8.0,12.0,-999,-99.99,,,-99.99,,2013-07-24 16:40:00,
2013-07-24 13:12:00,67.0,-99.9,-100.00,WNW,301,8.0,12.0,-999,-99.99,,,-99.99,,2013-07-24 17:12:00,
2013-07-24 13:22:00,67.0,-99.9,-100.00,WNW,301,8.0,12.0,-999,-99.99,,,-99.99,,2013-07-24 17:22:00,
2013-07-24 13:33:00,67.0,-99.9,-100.00,WNW,301,8.0,12.0,-999,-99.99,,,-99.99,,2013-07-24 17:33:00,
2013-07-24 13:40:00,67.0,-99.9,-100.00,West,276,8.0,11.0,-999,-99.99,,,-99.99,,2013-07-24 17:40:00,
2013-07-24 14:12:00,67.0,-99.9,-100.00,West,276,8.0,11.0,-999,-99.99,,,-99.99,,2013-07-24 18:12:00,
2013-07-24 14:22:00,67.0,-99.9,-100.00,West,276,8.0,11.0,-999,-99.99,,,-99.99,,2013-07-24 18:22:00,
2013-07-24 14:33:00,67.0,-99.9,-100.00,West,276,8.0,11.0,-999,-99.99,,,-99.99,,2013-07-24 18:33:00,
2013-07-24 14:40:00,67.0,-99.9,-100.00,WNW,285,9.0,11.0,-999,-99.99,,,-99.99,,2013-07-24 18:40:00,
2013-07-24 15:12:00,67.0,-99.9,-100.00,WNW,285,9.0,11.0,-999,-99.99,,,-99.99,,2013-07-24 19:12:00,
2013-07-24 15:22:00,67.0,-99.9,-100.00,WNW,285,9.0,11.0,-999,-99.99,,,-99.99,,2013-07-24 19:22:00,
2013-07-24 15:33:00,67.0,-99.9,-100.00,WNW,285,9.0,11.0,-999,-99.99,,,-99.99,,2013-07-24 19:33:00,
2013-07-24 15:40:00,68.0,-99.9,-100.00,West,266,7.0,10.0,-999,-99.99,,,-99.99,,2013-07-24 19:40:00,
2013-07-24 16:13:00,68.0,-99.9,-100.00,West,266,7.0,10.0,-999,-99.99,,,-99.99,,2013-07-24 20:13:00,
2013-07-24 16:23:00,68.0,-99.9,-100.00,West,266,7.0,10.0,-999,-99.99,,,-99.99,,2013-07-24 20:23:00,
2013-07-24 16:33:00,68.0,-99.9,-100.00,West,266,7.0,10.0,-999,-99.99,,,-99.99,,2013-07-24 20:33:00,
2013-07-24 16:40:00,68.0,-99.9,-100.00,West,279,6.0,8.0,-999,-99.99,,,-99.99,,2013-07-24 20:40:00,
2013-07-24 17:12:00,68.0,-99.9,-100.00,West,279,6.0,8.0,-999,-99.99,,,-99.99,,2013-07-24 21:12:00,
2013-07-24 17:22:00,68.0,-99.9,-100.00,West,279,6.0,8.0,-999,-99.99,,,-99.99,,2013-07-24 21:22:00,
2013-07-24 17:32:00,68.0,-99.9,-100.00,West,279,6.0,8.0,-999,-99.99,,,-99.99,,2013-07-24 21:32:00,
2013-07-24 18:12:00,69.0,-99.9,-100.00,WNW,287,7.0,8.0,-999,-99.99,,,-99.99,,2013-07-24 22:12:00,
2013-07-24 18:32:00,69.0,-99.9,-100.00,WNW,282,7.0,12.0,-999,-99.99,,,-99.99,,2013-07-24 22:32:00,
2013-07-24 18:43:00,69.0,-99.9,-100.00,WNW,282,7.0,12.0,-999,-99.99,,,-99.99,,2013-07-24 22:43:00,
2013-07-24 18:53:00,69.0,-99.9,-100.00,WNW,282,7.0,12.0,-999,-99.99,,,-99.99,,2013-07-24 22:53:00,
2013-07-24 19:00:00,69.0,-99.9,-100.00,WNW,282,7.0,12.0,-999,-99.99,,,-99.99,,2013-07-24 23:00:00,
2013-07-24 19:12:00,68.0,-99.9,-100.00,WNW,284,7.0,9.0,-999,-99.99,,,-99.99,,2013-07-24 23:12:00,
2013-07-24 19:22:00,69.0,-99.9,-100.00,WNW,282,7.0,12.0,-999,-99.99,,,-99.99,,2013-07-24 23:22:00,
2013-07-24 19:33:00,69.0,-99.9,-100.00,WNW,282,7.0,12.0,-999,-99.99,,,-99.99,,2013-07-24 23:33:00,
2013-07-24 19:40:00,68.0,-99.9,-100.00,WNW,283,6.0,8.0,-999,-99.99,,,-99.99,,2013-07-24 23:40:00,
2013-07-24 19:43:00,69.0,-99.9,-100.00,WNW,282,7.0,12.0,-999,-99.99,,,-99.99,,2013-07-24 23:43:00,
2013-07-24 19:52:00,69.0,-99.9,-100.00,WNW,282,7.0,12.0,-999,-99.99,,,-99.99,,2013-07-24 23:52:00,
2013-07-24 20:12:00,68.0,-99.9,-100.00,WNW,283,6.0,8.0,-999,-99.99,,,-99.99,,2013-07-25 00:12:00,
2013-07-24 20:22:00,68.0,-99.9,-100.00,WNW,283,6.0,8.0,-999,-99.99,,,-99.99,,2013-07-25 00:22:00,
2013-07-24 20:33:00,68.0,-99.9,-100.00,WNW,283,6.0,8.0,-999,-99.99,,,-99.99,,2013-07-25 00:33:00,
2013-07-24 20:40:00,66.0,-99.9,-100.00,WSW,255,4.0,7.0,-999,-99.99,,,-99.99,,2013-07-25 00:40:00,
2013-07-24 21:12:00,66.0,-99.9,-100.00,WSW,255,4.0,7.0,-999,-99.99,,,-99.99,,2013-07-25 01:12:00,
2013-07-24 21:22:00,66.0,-99.9,-100.00,WSW,255,4.0,7.0,-999,-99.99,,,-99.99,,2013-07-25 01:22:00,
2013-07-24 21:32:00,66.0,-99.9,-100.00,WSW,255,4.0,7.0,-999,-99.99,,,-99.99,,2013-07-25 01:32:00,
2013-07-24 21:40:00,59.0,-99.9,-100.00,South,183,1.0,2.0,-999,-99.99,,,-99.99,,2013-07-25 01:40:00,
2013-07-24 22:22:00,59.0,-99.9,-100.00,South,183,1.0,2.0,-999,-99.99,,,-99.99,,2013-07-25 02:22:00,
2013-07-24 22:33:00,59.0,-99.9,-100.00,South,183,1.0,2.0,-999,-99.99,,,-99.99,,2013-07-25 02:33:00,
2013-07-24 22:40:00,57.0,-99.9,-100.00,South,185,4.0,5.0,-999,-99.99,,,-99.99,,2013-07-25 02:40:00,
2013-07-24 23:24:00,57.0,-99.9,-100.00,South,185,4.0,5.0,-999,-99.99,,,-99.99,,2013-07-25 03:24:00,
2013-07-24 23:40:00,58.0,-99.9,-100.00,SW,226,2.0,5.0,-999,-99.99,,,-99.99,,2013-07-25 03:40:00,